N6EQ Weather Reports


Display with metric or nautical units.
time (UTC)temp
F
wind
direction
speed
MPH
gust
MPH
rain 1hr
in
rain 24hr
in
rain mn
in
humidity
%
barometer
mb
20260904194540 95 134 16.0 24.0 0.00 0.00 0.00 25 949.6
20260904193040 94 210 17.0 27.0 0.00 0.00 0.00 26 949.7
20260904191542 94 179 14.0 28.0 0.00 0.00 0.00 25 950.0
20260904190036 93 134 12.0 24.0 0.00 0.00 0.00 28 950.1
20260904184534 93 226 15.0 22.0 0.00 0.00 0.00 26 950.2
20260904183031 93 198 9.0 23.0 0.00 0.00 0.00 27 950.3
20260904181533 92 188 14.0 0.0 0.00 0.00 0.00 25 950.3
20260904180025 92 207 14.0 22.0 0.00 0.00 0.00 28 950.5
20260904174522 92 200 16.0 25.0 0.00 0.00 0.00 27 950.5
20260904173042 91 189 15.0 28.0 0.00 0.00 0.00 31 950.6
20260904171517 89 212 0.0 10.0 0.00 0.00 0.00 30 950.5
20260904170013 88 223 0.0 9.0 0.00 0.00 0.00 27 950.4
20260904164510 87 240 0.0 9.0 0.00 0.00 0.00 25 950.4
20260904163008 86 238 2.0 9.0 0.00 0.00 0.00 23 950.3
20260904161511 86 229 3.0 10.0 0.00 0.00 0.00 23 950.2
20260904160005 85 3.0 9.0 0.00 0.00 0.00 22 950.1
20260904154502 84 226 0.0 2.0 0.00 0.00 0.00 19 950.2
20260904153102 83 240 0.0 0.0 0.00 0.00 0.00 17 950.0
20260904151604 83 238 0.0 0.0 0.00 0.00 0.00 16 950.0
20260904150058 82 221 0.0 0.0 0.00 0.00 0.00 16 949.8
20260904144609 82 236 0.0 0.0 0.00 0.00 0.00 16 949.7
20260904143100 82 151 0.0 0.0 0.00 0.00 0.00 16 949.5
20260904141556 81 162 0.0 0.0 0.00 0.00 0.00 16 949.3
20260904140050 80 111 0.0 0.0 0.00 0.00 0.00 15 949.1
20260904134551 79 108 0.0 0.0 0.00 0.00 0.00 16 948.9
20260904133056 79 105 0.0 0.0 0.00 0.00 0.00 16 948.7
20260904131545 79 113 0.0 0.0 0.00 0.00 0.00 15 948.5
20260904130041 79 116 0.0 0.0 0.00 0.00 0.00 15 948.3
20260904124539 80 131 0.0 0.0 0.00 0.00 0.00 15 948.3
20260904123037 80 117 0.0 0.0 0.00 0.00 0.00 15 948.1
20260904121537 80 131 0.0 0.0 0.00 0.00 0.00 15 948.0
20260904120037 80 134 0.0 0.0 0.00 0.00 0.00 15 948.0
20260904114535 81 113 0.0 0.0 0.00 0.00 0.00 14 948.0
20260904113034 81 105 0.0 0.0 0.00 0.00 0.00 14 947.9
20260904111533 81 139 0.0 0.0 0.00 0.00 0.00 14 947.9
20260904110031 81 153 0.0 0.0 0.00 0.00 0.00 14 947.7
20260904104531 81 119 0.0 0.0 0.00 0.00 0.00 14 947.6
20260904103029 81 138 0.0 0.0 0.00 0.00 0.00 15 947.6
20260904101528 80 108 0.0 0.0 0.00 0.00 0.00 15 947.5
20260904100028 80 127 0.0 0.0 0.00 0.00 0.00 15 947.4
20260904094527 80 123 0.0 0.0 0.00 0.00 0.00 15 947.4
20260904093025 80 188 0.0 0.0 0.00 0.00 0.00 16 947.3
20260904091542 80 198 0.0 0.0 0.00 0.00 0.00 15 947.2
20260904090019 81 208 0.0 0.0 0.00 0.00 0.00 15 947.2
20260904084517 82 150 0.0 0.0 0.00 0.00 0.00 14 947.2
20260904083026 83 174 0.0 0.0 0.00 0.00 0.00 13 947.2
20260904081515 85 285 0.0 3.0 0.00 0.00 0.00 13 947.2
20260904080013 82 149 0.0 0.0 0.00 0.00 0.00 14 947.3
20260904074510 84 152 0.0 0.0 0.00 0.00 0.00 13 947.3
20260904073006 85 285 0.0 0.0 0.00 0.00 0.00 13 947.3
20260904071503 87 262 0.0 2.0 0.00 0.00 0.00 12 947.3
20260904070113 87 104 0.0 0.0 0.00 0.00 0.00 11 947.3
20260904064608 88 122 1.0 7.0 0.00 0.00 0.00 11 947.1
20260904063100 90 135 5.0 12.0 0.00 0.00 0.00 10 947.1
20260904061557 89 148 0.0 7.0 0.00 0.00 0.00 9 947.0
20260904060057 90 155 0.0 10.0 0.00 0.00 0.00 9 946.9
20260904054557 90 0.0 9.0 0.00 0.00 0.00 10 946.9
20260904053103 91 3.0 11.0 0.00 0.00 0.00 10 946.9
20260904051554 91 143 3.0 9.0 0.00 0.00 0.00 10 947.0
20260904050056 91 148 4.0 11.0 0.00 0.00 0.00 11 947.0
20260904044607 91 134 2.0 7.0 0.00 0.00 0.00 12 947.0
20260904043057 91 151 1.0 9.0 0.00 0.00 0.00 12 947.0
20260904041553 92 137 1.0 9.0 0.00 0.00 0.00 10 946.8
20260904040052 92 137 1.0 6.0 0.00 0.00 0.00 10 946.7
20260904034551 92 153 3.0 10.0 0.00 0.00 0.00 9 946.5
20260904033057 92 136 0.0 6.0 0.00 0.00 0.00 9 946.4
20260904031602 92 133 3.0 7.0 0.00 0.00 0.00 9 946.2
20260904030049 93 181 0.0 8.0 0.00 0.00 0.00 8 946.1
20260904024549 93 156 1.0 7.0 0.00 0.00 0.00 8 946.1
20260904023050 94 157 0.0 9.0 0.00 0.00 0.00 7 946.1
20260904021552 94 153 1.0 10.0 0.00 0.00 0.00 7 946.1
20260904020048 95 149 2.0 19.0 0.00 0.00 0.00 10 946.1
20260904014546 96 159 8.0 14.0 0.00 0.00 0.00 11 946.1
20260904013044 97 135 7.0 17.0 0.00 0.00 0.00 11 946.1
20260904011543 97 188 6.0 20.0 0.00 0.00 0.00 11 946.2
20260904010043 98 165 4.0 17.0 0.00 0.00 0.00 9 946.2
20260904004542 98 155 5.0 22.0 0.00 0.00 0.00 10 946.2
20260904003040 98 203 8.0 21.0 0.00 0.00 0.00 11 946.4
20260904001540 98 183 7.0 20.0 0.00 0.00 0.00 13 946.4
20260904000038 98 213 11.0 22.0 0.00 0.00 0.00 12 946.5
20260903234537 98 143 9.0 18.0 0.00 0.00 0.00 13 946.6
20260903233036 98 133 10.0 24.0 0.00 0.00 0.00 13 946.7
20260903231532 98 12.0 18.0 0.00 0.00 0.00 12 947.2
20260903230032 97 220 8.0 23.0 0.00 0.00 0.00 13 947.3
20260903224535 97 185 14.0 22.0 0.00 0.00 0.00 13 947.4
20260903223029 97 172 11.0 20.0 0.00 0.00 0.00 11 947.7
20260903221542 97 166 13.0 24.0 0.00 0.00 0.00 11 947.9
20260903220024 97 202 14.0 24.0 0.00 0.00 0.00 11 947.9
20260903214524 97 142 16.0 25.0 0.00 0.00 0.00 10 948.2
20260903213023 97 222 13.0 23.0 0.00 0.00 0.00 9 948.3
20260903211520 97 181 12.0 25.0 0.00 0.00 0.00 9 948.4
20260903210019 96 140 15.0 23.0 0.00 0.00 0.00 8 948.6
20260903204518 96 70 11.0 22.0 0.00 0.00 0.00 8 948.7
20260903203020 95 212 6.0 20.0 0.00 0.00 0.00 8 948.9
20260903201513 95 154 8.0 18.0 0.00 0.00 0.00 9 949.0
20260903200017 94 166 11.0 19.0 0.00 0.00 0.00 11 949.2